EHI
6 4 2 1 0 0 0 0 0 0 0 0 0 0 0 0 0 0 0 0 0 0 0 0 1 4 5 4 2 3 4 6 6 6 5 4 3 3 2 1 2 2 3 4 3 1 0 0 1
5 4 1 0 0 0 0 0 0 0 0 0 0 0 0 0 0 0 0 0 0 0 0 0 1 4 5 3 1 1 2 4 6 6 5 4 4 4 3 1 1 1 2 3 3 1 0 1 2
4 3 1 0 0 0 0 0 0 0 0 0 0 0 0 0 0 0 0 0 0 0 0 0 1 3 3 2 1 1 1 2 5 6 6 6 5 4 3 1 0 0 1 3 3 1 0 1 2
2 1 0 0 0 0 0 0 0 0 0 0 0 1 1 1 0 0 0 0 0 1 1 1 2 2 1 1 2 1 0 1 4 6 6 5 4 4 3 2 0 0 1 2 3 2 1 1 2
0 0 0 0 0 0 0 0 0 0 0 0 0 1 1 1 0 0 0 0 1 2 2 1 2 2 1 1 2 1 0 1 3 4 4 4 3 3 3 2 1 0 1 2 2 2 1 1 2
0 0 0 0 0 0 0 0 0 0 0 0 0 0 0 1 1 0 0 0 1 2 2 1 1 2 2 1 1 2 1 1 2 3 3 3 3 3 3 2 2 1 0 1 1 1 0 0 1
0 0 0 0 0 0 0 0 0 0 0 0 0 0 0 0 0 1 1 2 2 3 3 1 1 2 2 2 2 2 2 2 3 3 3 3 3 3 2 2 1 1 0 0 0 0 0 0 0
0 0 0 0 0 0 0 0 0 0 0 0 0 0 0 0 0 1 3 3 3 3 3 3 3 2 1 1 2 3 3 3 4 4 4 3 2 1 1 0 0 0 0 0 0 0 0 0 0
0 0 0 0 0 0 0 0 0 0 0 0 0 1 1 1 0 1 3 3 3 3 3 3 3 2 1 0 1 3 3 3 4 4 4 3 1 0 0 0 0 0 0 0 0 0 0 0 0
0 0 0 0 0 0 0 0 0 0 0 0 0 1 2 2 1 1 2 3 3 3 3 3 3 2 1 0 1 2 2 1 1 2 2 1 0 0 0 0 0 0 0 0 0 0 0 0 0
0 0 0 0 0 0 0 0 0 0 0 0 0 1 3 2 1 0 1 3 3 3 3 3 3 2 1 0 0 1 1 0 0 0 0 0 0 0 0 0 0 0 0 0 0 0 0 0 0
0 0 0 0 0 0 0 0 0 0 0 0 0 1 2 2 1 0 1 2 3 3 3 3 2 2 1 0 0 0 0 0 0 0 0 0 0 0 0 0 0 0 0 0 0 0 0 0 0
0 0 0 0 0 0 0 0 0 0 0 1 1 0 1 1 1 1 1 2 3 3 3 3 2 2 2 1 0 0 0 0 0 0 0 0 0 0 0 0 0 0 0 0 0 0 0 0 0
0 0 0 0 0 0 0 0 0 0 1 1 1 0 0 1 2 2 1 2 3 3 3 3 3 3 2 1 0 0 0 0 0 0 0 0 0 0 0 0 0 0 0 0 0 0 0 0 0
0 0 0 0 0 0 0 0 0 0 1 1 1 0 0 1 2 3 3 3 3 3 3 3 3 2 2 1 0 0 0 0 0 0 0 0 0 0 0 0 0 0 0 0 0 0 0 0 0
0 0 0 0 0 0 0 0 0 0 0 0 0 0 0 0 1 3 3 3 3 3 3 3 1 1 1 1 0 0 0 0 0 0 0 0 0 0 0 0 0 0 0 0 0 0 0 0 0
0 0 0 0 0 0 0 0 0 0 0 0 0 0 0 0 1 2 3 3 3 4 3 3 1 1 1 1 1 0 0 0 0 0 0 0 0 0 0 0 0 0 0 0 0 0 0 0 0
0 0 0 0 0 0 0 0 0 0 0 0 0 0 1 0 0 2 3 4 4 4 4 3 3 2 3 2 1 0 0 0 0 0 0 0 0 0 0 0 0 0 0 0 0 0 0 0 0
0 0 0 0 0 0 0 0 0 0 0 0 0 0 0 0 0 1 2 3 3 4 3 3 3 3 3 2 1 0 0 0 0 0 0 0 0 0 0 0 0 0 0 0 0 0 0 0 0
0 0 0 0 0 0 0 0 0 0 0 0 0 0 0 0 0 0 1 2 3 3 3 3 3 3 2 2 1 0 0 0 0 0 0 0 0 0 0 0 0 0 0 0 0 0 0 0 0
0 0 0 0 0 0 0 0 0 0 0 0 0 0 0 0 0 0 1 2 3 3 3 3 3 1 1 1 0 0 0 0 0 0 0 0 0 0 0 0 0 0 0 0 0 0 0 0 0
0 0 0 0 0 0 0 0 0 0 0 0 0 0 0 0 0 0 0 1 2 3 3 3 2 1 0 0 0 0 0 0 0 0 0 0 0 0 0 0 0 0 0 0 0 0 0 0 0
0 0 0 0 0 0 0 0 0 0 0 0 0 0 0 0 0 0 0 1 2 3 3 3 2 1 0 0 0 0 0 0 0 0 0 0 0 0 0 0 0 0 0 0 0 0 0 0 0
0 0 0 0 0 0 0 0 0 0 0 0 0 0 0 0 0 0 0 0 1 3 3 3 2 1 0 0 0 0 0 0 0 0 0 0 0 0 0 0 0 0 0 0 0 0 0 0 0
0 0 0 0 0 0 0 0 0 0 0 0 0 0 0 0 0 0 0 0 1 3 3 3 2 0 0 0 0 0 0 0 0 0 0 0 0 0 0 0 0 0 0 0 0 0 0 0 0
0 0 0 0 0 0 0 0 0 0 0 0 0 0 0 0 0 0 0 1 2 3 3 3 2 1 0 0 0 0 0 0 0 0 0 0 0 0 0 0 0 0 0 0 0 0 0 0 0
0 0 0 0 0 0 0 0 0 0 0 0 0 0 0 0 0 0 0 1 2 3 3 3 3 2 1 0 0 0 0 0 0 0 0 0 0 0 0 0 0 0 0 0 0 0 0 0 0
0 0 0 0 0 0 0 0 0 0 0 0 0 0 0 0 0 0 0 1 3 3 3 3 3 2 1 0 0 0 0 0 0 0 0 0 0 0 0 0 0 0 0 0 0 0 0 0 0
0 0 0 0 0 0 0 0 0 0 0 0 0 0 1 0 0 0 1 2 3 3 3 4 3 2 1 0 0 0 0 0 0 0 0 0 0 0 0 0 0 0 0 0 0 0 0 0 0
0 0 0 0 0 0 0 0 0 0 0 0 0 0 1 0 0 0 1 2 3 3 4 4 4 2 1 0 0 0 0 0 0 0 0 0 0 0 0 0 0 0 0 0 0 0 0 0 0
Wind_Speed
4 2 2 3 6 6 2 1 1 2 4 5 8 10 9 6 4 4 2 5 6 4 3 4 7 8 9 9 10 10 11 11 11 12 12 12 12 12 12 12 12 13 12 12 12 12 11 10 10
2 1 3 4 6 4 1 0 4 4 6 6 8 8 8 6 5 5 3 5 6 5 3 4 8 8 9 10 10 10 10 11 11 12 12 12 12 12 11 12 12 13 13 13 12 11 11 10 10
2 0 4 5 4 3 2 2 4 5 5 5 6 6 6 4 4 3 5 7 6 5 4 5 8 9 9 10 10 11 11 11 11 12 12 12 12 11 11 12 12 13 13 13 12 11 10 10 10
2 4 5 6 4 2 4 3 4 5 5 6 7 6 4 3 3 5 8 8 7 5 3 5 8 9 9 9 10 11 11 11 11 12 12 12 12 12 11 12 13 13 13 12 12 11 10 10 10
4 5 6 4 1 0 2 2 3 5 4 5 7 7 4 3 6 8 8 7 7 4 3 4 7 8 8 9 10 11 11 11 11 12 12 12 12 12 13 14 13 13 12 12 11 11 10 10 10
4 4 5 2 1 1 1 3 5 7 5 6 7 6 3 2 6 7 7 6 7 5 3 4 7 7 8 9 9 10 10 11 11 11 12 11 12 12 13 13 12 12 12 11 11 10 10 10 10
4 4 3 3 2 1 1 3 5 5 5 4 5 6 3 2 3 6 7 6 5 5 4 2 2 4 7 8 9 9 10 10 10 11 11 11 11 11 11 11 12 12 11 10 10 10 10 10 10
5 5 3 1 2 1 0 3 4 5 4 4 5 8 5 5 4 6 6 5 5 4 3 2 2 2 3 4 8 9 9 10 10 10 10 10 10 10 11 10 10 11 11 10 10 9 9 9 10
4 5 2 2 3 1 1 4 3 4 6 4 4 5 7 8 7 7 5 4 4 4 2 2 2 2 3 4 6 6 7 8 8 7 9 8 4 5 5 8 10 10 10 10 10 10 9 9 9
5 3 2 3 3 3 2 4 3 4 6 5 6 6 8 7 7 7 6 5 4 3 2 2 2 3 2 3 4 3 3 3 4 3 4 3 3 4 5 8 10 10 10 10 10 10 8 6 4
3 4 2 1 2 3 2 2 2 6 4 5 9 10 8 7 6 6 5 4 4 4 4 3 3 2 2 2 3 2 2 2 3 4 4 3 3 3 4 3 4 5 7 5 7 6 4 4 3
4 2 3 2 2 2 2 2 3 3 4 6 10 11 9 8 7 6 5 4 3 4 4 4 4 3 2 2 2 2 2 2 2 2 4 3 3 3 3 2 2 3 3 3 4 3 4 5 4
4 2 2 3 4 3 4 3 3 2 4 7 9 9 8 7 5 4 4 4 4 4 4 4 4 4 3 2 2 3 2 2 2 2 2 3 3 2 2 2 2 3 3 3 3 4 5 5 5
3 3 2 2 2 1 3 2 3 2 6 8 9 8 7 7 6 5 4 4 4 4 4 4 4 4 3 3 2 2 2 2 2 2 2 3 3 3 3 3 3 3 3 3 3 4 4 4 4
3 3 1 1 2 2 4 2 2 4 6 8 8 7 6 5 5 6 6 6 5 5 5 5 5 4 4 3 3 3 2 3 2 2 2 4 4 4 3 3 2 2 3 4 4 4 4 4 4
3 3 1 4 3 2 4 2 3 4 7 6 6 6 6 5 5 5 6 5 6 5 5 5 5 5 4 3 3 3 2 3 2 2 2 3 4 4 4 3 2 2 3 3 3 3 3 3 3
1 1 3 3 3 2 3 3 3 4 7 6 6 6 6 5 4 5 6 6 5 6 6 5 4 5 5 4 3 3 3 3 2 2 2 2 3 4 4 3 2 3 3 3 3 3 2 3 2
3 3 3 4 3 2 3 3 4 5 6 7 7 6 6 6 6 5 5 6 5 5 6 5 5 5 5 3 3 3 3 2 2 2 2 2 2 4 4 3 2 3 3 3 3 3 3 2 2
4 3 3 4 3 3 3 4 5 6 5 6 6 6 7 7 6 4 4 5 5 4 5 4 5 4 4 3 3 3 2 1 1 1 2 3 3 3 4 3 3 3 3 2 3 2 3 2 2
2 1 1 2 2 3 3 4 4 6 7 7 7 7 8 6 4 4 4 4 4 5 5 5 5 5 4 3 3 3 2 1 1 1 1 2 3 3 4 4 3 2 3 3 2 2 2 1 1
1 3 3 3 1 1 1 3 3 3 4 4 5 6 6 8 8 6 5 4 4 4 5 5 5 5 5 4 3 3 3 2 1 1 0 0 2 3 3 4 3 3 3 2 2 2 3 1 1
3 4 3 2 1 2 2 2 5 3 3 4 4 4 5 6 7 7 6 6 5 5 5 5 5 5 5 5 5 5 3 2 2 2 1 0 1 2 2 3 3 3 2 2 2 2 2 2 0
4 3 2 2 2 1 1 2 6 1 3 6 6 6 6 7 7 7 6 7 6 5 5 5 5 4 4 5 5 5 3 2 1 1 1 1 0 1 2 2 3 3 2 2 2 2 2 2 2
1 3 4 3 3 2 4 4 5 4 7 5 5 5 6 6 6 5 4 4 3 3 4 4 5 4 4 5 5 5 5 4 3 2 2 1 0 0 1 2 2 2 2 2 2 2 2 2 2
4 5 3 3 2 5 2 3 7 6 5 7 7 6 6 6 6 5 5 4 4 4 4 5 5 4 4 4 4 5 5 5 5 4 3 2 1 1 2 2 2 2 2 2 2 2 2 2 2
2 6 6 3 4 4 2 4 5 3 3 4 6 6 6 6 6 6 6 5 5 5 5 5 5 4 4 4 4 4 4 3 3 4 3 3 3 3 3 2 2 2 2 2 2 2 2 2 2
3 3 5 5 1 1 3 3 4 1 1 2 4 5 6 6 6 6 6 5 5 5 5 5 5 4 4 4 4 4 4 3 3 3 3 2 2 2 2 2 2 2 2 2 2 1 2 1 2
4 5 4 3 2 2 4 4 5 5 4 3 4 5 5 5 5 5 5 6 5 5 4 4 4 5 4 4 4 4 3 3 3 3 3 2 2 2 2 2 2 2 2 2 2 1 1 1 1
1 2 4 3 3 4 3 6 5 7 6 6 6 6 7 7 6 5 5 5 4 4 4 3 3 3 3 3 3 3 3 2 2 2 2 2 2 2 2 2 3 3 2 2 2 2 2 2 1
4 5 6 4 3 4 3 7 4 4 5 6 6 5 5 6 6 5 5 4 4 4 4 4 3 3 3 3 3 3 2 2 2 2 2 2 2 2 2 2 2 2 2 2 3 3 2 2 2
Wind_Direction
308 321 80 57 55 54 57 345 123 62 56 55 75 83 84 67 86 121 192 135 129 126 103 86 83 83 85 84 82 78 76 75 75 75 75 76 78 81 84 88 91 94 94 95 97 97 97 96 95
333 337 64 58 78 79 18 358 92 97 134 120 81 76 76 69 77 106 121 134 126 122 106 91 86 86 89 90 88 83 79 78 78 77 78 79 80 80 83 87 90 92 93 94 95 96 96 95 91
308 88 75 67 89 140 153 168 121 106 104 97 79 57 70 91 98 120 142 135 118 111 103 95 91 89 89 93 93 89 85 83 81 79 78 79 80 81 85 90 92 92 92 92 92 94 93 92 91
51 46 56 72 88 176 168 183 134 106 65 61 94 70 60 66 116 131 132 125 115 113 107 103 99 95 93 93 92 92 91 88 84 81 79 78 78 76 81 96 94 93 93 92 91 90 92 93 95
66 69 64 68 91 212 156 153 117 102 81 76 91 90 66 39 103 117 123 120 121 124 116 113 107 102 98 97 96 94 93 90 85 82 79 79 80 78 83 93 93 92 92 91 88 86 87 89 92
58 68 85 101 104 67 72 105 98 95 102 100 96 100 95 105 111 124 128 123 125 128 122 116 111 107 105 105 104 100 96 92 89 86 81 81 83 84 84 89 89 90 89 88 86 85 84 81 84
97 90 116 133 113 70 125 104 101 111 108 107 113 102 119 140 137 131 128 126 123 123 110 100 113 110 109 109 106 104 100 96 93 91 87 84 85 86 88 89 90 89 87 84 82 83 83 80 81
120 97 87 109 124 124 326 87 101 100 100 103 104 126 156 190 149 117 112 116 116 112 111 101 86 96 103 108 108 106 103 100 95 91 87 84 84 84 84 85 87 87 82 78 78 82 84 80 81
86 80 118 164 151 167 64 82 58 72 93 78 83 131 156 156 122 105 100 93 105 112 114 115 99 104 107 112 107 98 95 93 91 87 86 79 65 64 73 77 79 80 76 72 73 75 80 80 78
84 112 191 189 162 147 91 95 119 88 80 77 78 93 122 125 117 123 129 127 129 138 143 140 119 111 110 113 99 82 78 77 73 73 78 73 66 60 66 62 64 66 66 65 65 65 67 67 64
106 147 155 118 133 127 103 74 82 117 117 154 146 143 139 127 128 135 145 147 154 156 142 139 140 129 120 105 108 91 75 72 67 74 80 77 66 60 56 52 47 45 52 49 50 51 50 60 68
101 115 131 129 108 102 99 91 72 113 171 164 150 147 143 142 151 154 158 158 148 142 142 143 142 134 123 116 115 109 101 89 84 81 89 86 77 69 63 57 48 42 42 47 47 50 56 63 69
99 117 107 113 93 95 86 87 103 103 130 133 135 139 146 151 158 165 166 156 145 141 145 148 144 141 137 121 118 107 106 106 102 89 90 97 94 90 76 60 53 49 47 51 52 54 60 60 65
153 134 112 118 110 108 102 84 99 147 130 130 136 143 150 156 162 160 153 159 160 151 149 147 137 137 129 126 122 115 120 113 97 86 95 104 104 102 92 74 58 51 54 57 63 66 64 59 65
109 98 41 244 174 172 104 40 152 168 138 140 148 154 156 166 161 167 171 168 165 160 154 149 145 133 127 127 129 118 118 113 107 101 99 104 107 108 102 91 72 59 63 66 64 58 57 63 62
71 86 192 253 194 179 121 224 233 173 148 156 164 168 167 179 181 180 171 169 166 155 151 154 145 136 134 129 124 117 113 112 110 103 98 100 106 107 103 99 88 78 73 69 71 62 61 55 56
44 170 213 255 214 165 151 203 214 182 160 170 178 179 177 184 192 189 176 169 168 161 152 146 140 140 138 135 128 113 110 104 100 97 100 108 111 108 107 102 92 84 74 66 76 64 75 70 58
214 191 199 217 222 154 175 208 205 200 173 179 183 181 182 188 200 186 173 168 158 159 151 147 137 137 132 121 103 87 87 85 87 97 104 112 114 111 108 104 90 85 81 64 65 71 58 71 66
176 168 198 229 218 164 205 217 209 203 192 191 189 187 192 200 201 173 154 149 143 149 147 149 141 143 134 122 120 116 122 116 89 96 114 118 120 116 111 109 101 94 94 94 94 86 63 45 53
138 145 200 269 231 186 209 242 220 201 203 196 191 190 193 195 186 168 155 146 152 156 152 150 154 152 148 146 144 143 138 131 123 102 93 122 131 128 124 124 120 113 101 87 83 88 80 40 51
211 187 200 219 311 345 134 307 270 237 208 198 196 192 186 183 179 173 164 162 162 160 164 164 163 154 150 139 117 100 79 65 63 68 51 142 140 139 136 136 131 127 128 130 128 116 113 113 354
240 219 191 184 115 275 158 257 276 230 204 215 216 197 193 187 176 175 171 168 176 177 170 161 161 155 149 138 132 138 144 156 190 187 186 191 143 139 140 150 143 142 139 146 160 133 127 126 118
224 225 200 204 175 285 256 179 276 231 215 230 221 204 199 189 178 178 178 175 178 171 164 162 151 149 152 149 147 148 148 164 162 144 145 147 105 129 150 158 147 152 152 159 157 138 135 141 155
155 40 29 46 75 278 232 175 262 227 214 212 210 199 190 185 173 166 157 146 154 150 145 148 143 145 155 156 155 155 157 159 148 154 163 174 155 120 172 163 152 160 160 169 174 167 161 165 155
75 78 35 8 2 255 235 172 241 235 214 193 187 188 180 170 159 149 142 142 147 149 157 154 151 156 163 160 165 168 171 171 171 178 183 179 175 185 208 180 169 167 174 173 162 158 176 175 162
170 137 153 189 225 274 318 220 248 243 212 182 173 169 164 166 168 162 162 160 161 162 164 161 160 163 168 170 176 174 174 174 182 182 178 187 195 200 195 182 180 178 169 162 158 157 188 182 187
142 169 172 148 220 262 279 283 303 254 144 136 153 151 166 174 177 175 167 163 165 164 166 168 167 166 175 181 177 171 178 179 183 182 173 181 193 190 181 171 169 170 166 165 162 166 191 179 197
159 153 98 117 171 255 276 247 233 224 213 191 180 174 177 173 176 177 171 169 170 168 163 158 162 170 173 177 182 177 188 188 180 169 174 182 190 182 166 169 172 176 177 172 160 170 191 173 211
169 151 127 136 167 169 246 262 227 202 200 193 193 183 178 176 179 180 178 174 167 155 149 147 154 150 156 172 174 164 172 168 155 158 179 183 184 170 163 181 188 180 184 178 166 187 177 177 211
182 182 149 157 229 187 198 264 279 193 193 184 181 177 177 177 177 173 168 160 158 156 155 155 158 156 165 165 153 155 153 144 151 171 178 171 177 177 170 171 184 181 180 185 180 194 186 182 202